{"data":{"norad_id":52851,"epoch":"2026-05-25T00:16:55.435008Z","epoch_age_seconds":67224,"freshness":"FRESH","line1":"1 52851U 22062X   26145.01175272 -.00000117  00000+0  10754-4 0  9996","line2":"2 52851  53.2135  41.4961 0002131  98.3146 261.8088 15.08835600217442","mean_motion":15.088356,"eccentricity":0.0002131,"inclination_deg":53.2135,"raan_deg":41.4961,"arg_perigee_deg":98.3146,"mean_anomaly_deg":261.8088,"bstar":1.0754e-5,"rev_number":21744,"period_min":95.437832988564,"perigee_km":538.28263485965,"apogee_km":541.23104121343,"semimajor_km":6917.8938380365,"source":"CELESTRAK","updated_at":"2026-05-25T13:38:17.245021Z"}}